| time (UTC) | temp C | wind direction | speed KPH | gust KPH | rain 1hr cm | rain 24hr cm | rain mn cm | humidity % | barometer mb |
| 20260906095510 | 18 | 52 | 4.8 | 9.7 | 0.00 | 0.00 | 0.00 | 86 | 1016.2 |
| 20260906094008 | 18 | 57 | 4.8 | 11.3 | 0.00 | 0.00 | 0.00 | 84 | 1016.1 |
| 20260906092501 | 18 | 74 | 6.4 | 12.9 | 0.00 | 0.00 | 0.00 | 83 | 1016.2 |
| 20260906091000 | 19 | 74 | 6.4 | 14.5 | 0.00 | 0.00 | 0.00 | 83 | 1016.0 |
| 20260906085501 | 19 | 59 | 6.4 | 14.5 | 0.00 | 0.00 | 0.00 | 87 | 1015.9 |
| 20260906084000 | 20 | 99 | 6.4 | 16.1 | 0.00 | 0.00 | 0.00 | 89 | 1015.8 |
| 20260906082503 | 20 | 62 | 6.4 | 16.1 | 0.00 | 0.00 | 0.00 | 92 | 1015.8 |
| 20260906081004 | 20 | 76 | 8.0 | 16.1 | 0.00 | 0.00 | 0.00 | 94 | 1015.7 |
| 20260906075502 | 20 | 47 | 6.4 | 11.3 | 0.00 | 0.00 | 0.00 | 93 | 1015.7 |
| 20260906074001 | 21 | 65 | 6.4 | 11.3 | 0.00 | 0.00 | 0.00 | 93 | 1015.6 |
| 20260906072502 | 21 | 51 | 6.4 | 11.3 | 0.00 | 0.00 | 0.00 | 92 | 1015.8 |
| 20260906071001 | 21 | 64 | 6.4 | 11.3 | 0.00 | 0.00 | 0.00 | 91 | 1015.8 |
| 20260906065500 | 21 | 58 | 8.0 | 12.9 | 0.00 | 0.00 | 0.00 | 91 | 1015.7 |
| 20260906063958 | 21 | 71 | 8.0 | 14.5 | 0.00 | 0.00 | 0.00 | 90 | 1015.8 |
| 20260906062459 | 21 | 65 | 6.4 | 12.9 | 0.00 | 0.00 | 0.00 | 90 | 1015.8 |
| 20260906060958 | 21 | 79 | 8.0 | 16.1 | 0.00 | 0.00 | 0.00 | 90 | 1015.7 |
| 20260906055456 | 21 | 62 | 9.7 | 14.5 | 0.00 | 0.00 | 0.00 | 90 | 1015.5 |
| 20260906053957 | 21 | 65 | 6.4 | 11.3 | 0.00 | 0.00 | 0.00 | 89 | 1015.4 |
| 20260906052452 | 21 | 61 | 8.0 | 12.9 | 0.00 | 0.00 | 0.00 | 89 | 1015.4 |
| 20260906050952 | 21 | 50 | 6.4 | 12.9 | 0.00 | 0.00 | 0.00 | 90 | 1015.3 |
| 20260906045452 | 21 | 53 | 9.7 | 14.5 | 0.00 | 0.00 | 0.00 | 90 | 1015.2 |
| 20260906043953 | 21 | 36 | 9.7 | 17.7 | 0.00 | 0.00 | 0.00 | 90 | 1015.2 |
| 20260906042452 | 21 | 36 | 8.0 | 16.1 | 0.00 | 0.00 | 0.00 | 91 | 1015.1 |
| 20260906040952 | 21 | 58 | 9.7 | 12.9 | 0.00 | 0.00 | 0.00 | 91 | 1015.0 |
| 20260906035452 | 21 | 41 | 9.7 | 14.5 | 0.00 | 0.00 | 0.00 | 91 | 1015.0 |
| 20260906033950 | 21 | 49 | 9.7 | 12.9 | 0.00 | 0.00 | 0.00 | 91 | 1014.8 |
| 20260906032451 | 21 | 51 | 6.4 | 11.3 | 0.00 | 0.00 | 0.00 | 91 | 1014.6 |
| 20260906030951 | 21 | 52 | 8.0 | 14.5 | 0.00 | 0.00 | 0.00 | 90 | 1014.7 |
| 20260906025452 | 21 | 27 | 8.0 | 14.5 | 0.00 | 0.00 | 0.00 | 90 | 1014.7 |
| 20260906023951 | 22 | 65 | 8.0 | 14.5 | 0.00 | 0.00 | 0.00 | 90 | 1014.6 |
| 20260906022450 | 22 | 49 | 9.7 | 16.1 | 0.00 | 0.00 | 0.00 | 90 | 1014.5 |
| 20260906020951 | 22 | 47 | 11.3 | 19.3 | 0.00 | 0.00 | 0.00 | 90 | 1014.5 |
| 20260906015451 | 22 | 45 | 9.7 | 16.1 | 0.00 | 0.00 | 0.00 | 90 | 1014.2 |
| 20260906013950 | 22 | 90 | 11.3 | 22.5 | 0.00 | 0.00 | 0.00 | 89 | 1014.2 |
| 20260906012450 | 22 | 63 | 11.3 | 22.5 | 0.00 | 0.00 | 0.00 | 89 | 1014.1 |
| 20260906010949 | 23 | 67 | 11.3 | 22.5 | 0.00 | 0.00 | 0.00 | 88 | 1013.9 |
| 20260906005450 | 23 | 29 | 11.3 | 24.1 | 0.00 | 0.00 | 0.00 | 87 | 1013.7 |
| 20260906003948 | 23 | 66 | 12.9 | 29.0 | 0.00 | 0.00 | 0.00 | 87 | 1013.6 |
| 20260906002448 | 24 | 54 | 9.7 | 22.5 | 0.00 | 0.00 | 0.00 | 87 | 1013.5 |
| 20260906000948 | 24 | 63 | 12.9 | 20.9 | 0.00 | 0.00 | 0.00 | 86 | 1013.4 |
| 20260905235444 | 25 | 67 | 11.3 | 22.5 | 0.00 | 0.00 | 0.00 | 84 | 1012.9 |
| 20260905233943 | 25 | 53 | 11.3 | 20.9 | 0.00 | 0.00 | 0.00 | 83 | 1012.7 |
| 20260905232440 | 26 | 42 | 11.3 | 17.7 | 0.00 | 0.00 | 0.00 | 82 | 1012.7 |
| 20260905230938 | 26 | 58 | 14.5 | 22.5 | 0.00 | 0.00 | 0.00 | 82 | 1012.5 |
| 20260905225441 | 26 | 51 | 11.3 | 19.3 | 0.00 | 0.00 | 0.00 | 80 | 1012.5 |
| 20260905223939 | 26 | 53 | 12.9 | 20.9 | 0.00 | 0.00 | 0.00 | 80 | 1012.3 |
| 20260905222438 | 26 | 74 | 14.5 | 30.6 | 0.00 | 0.00 | 0.00 | 81 | 1012.1 |
| 20260905220938 | 27 | 67 | 16.1 | 30.6 | 0.00 | 0.00 | 0.00 | 80 | 1012.0 |
| 20260905215438 | 27 | 38 | 16.1 | 30.6 | 0.00 | 0.00 | 0.00 | 80 | 1011.8 |
| 20260905213936 | 27 | 31 | 11.3 | 25.7 | 0.00 | 0.00 | 0.00 | 80 | 1011.7 |
| 20260905212435 | 28 | 53 | 12.9 | 25.7 | 0.00 | 0.00 | 0.00 | 79 | 1011.6 |
| 20260905210936 | 28 | 0 | 11.3 | 25.7 | 0.00 | 0.00 | 0.00 | 79 | 1011.5 |
| 20260905205436 | 28 | 41 | 12.9 | 25.7 | 0.00 | 0.00 | 0.00 | 79 | 1011.6 |
| 20260905203937 | 28 | 34 | 12.9 | 19.3 | 0.00 | 0.00 | 0.00 | 78 | 1011.6 |
| 20260905202436 | 30 | 5 | 6.4 | 19.3 | 0.00 | 0.00 | 0.00 | 74 | 1011.7 |
| 20260905200937 | 29 | 28 | 9.7 | 19.3 | 0.00 | 0.00 | 0.00 | 74 | 1011.8 |
| 20260905195435 | 31 | 0 | 3.2 | 19.3 | 0.00 | 0.00 | 0.00 | 70 | 1011.9 |
| 20260905193933 | 31 | 241 | 4.8 | 19.3 | 0.00 | 0.00 | 0.00 | 73 | 1011.9 |
| 20260905192435 | 31 | 0 | 3.2 | 19.3 | 0.00 | 0.00 | 0.00 | 73 | 1012.1 |
| 20260905190935 | 30 | 227 | 0.0 | 19.3 | 0.00 | 0.00 | 0.00 | 76 | 1012.2 |
| 20260905185433 | 28 | 351 | 4.8 | 19.3 | 0.00 | 0.00 | 0.00 | 78 | 1012.4 |
| 20260905183933 | 28 | 276 | 4.8 | 19.3 | 0.00 | 0.00 | 0.00 | 78 | 1012.4 |
| 20260905182434 | 27 | 252 | 4.8 | 19.3 | 0.00 | 0.00 | 0.00 | 82 | 1012.6 |
| 20260905180934 | 27 | 223 | 6.4 | 19.3 | 0.00 | 0.00 | 0.00 | 83 | 1012.8 |
| 20260905175433 | 28 | 0 | 4.8 | 19.3 | 0.00 | 0.00 | 0.00 | 82 | 1012.8 |
| 20260905173934 | 27 | 0 | 1.6 | 19.3 | 0.00 | 0.00 | 0.00 | 83 | 1012.9 |
| 20260905172433 | 27 | 218 | 3.2 | 19.3 | 0.00 | 0.00 | 0.00 | 83 | 1013.1 |
| 20260905170935 | 26 | 0 | 4.8 | 19.3 | 0.00 | 0.00 | 0.00 | 85 | 1013.2 |
| 20260905165434 | 26 | 265 | 1.6 | 19.3 | 0.00 | 0.00 | 0.00 | 85 | 1013.4 |
| 20260905163936 | 25 | 210 | 4.8 | 19.3 | 0.00 | 0.00 | 0.00 | 86 | 1013.3 |
| 20260905162436 | 25 | 148 | 4.8 | 19.3 | 0.00 | 0.00 | 0.00 | 87 | 1013.4 |
| 20260905160933 | 26 | 176 | 3.2 | 19.3 | 0.00 | 0.00 | 0.00 | 86 | 1013.3 |
| 20260905155433 | 25 | 148 | 4.8 | 19.3 | 0.00 | 0.00 | 0.00 | 87 | 1013.4 |
| 20260905153934 | 25 | 195 | 3.2 | 19.3 | 0.00 | 0.00 | 0.00 | 87 | 1013.5 |
| 20260905152436 | 25 | 160 | 3.2 | 19.3 | 0.00 | 0.00 | 0.00 | 87 | 1013.2 |
| 20260905150934 | 25 | 187 | 1.6 | 19.3 | 0.00 | 0.00 | 0.00 | 88 | 1013.2 |
| 20260905145433 | 25 | 170 | 1.6 | 19.3 | 0.00 | 0.00 | 0.00 | 87 | 1013.2 |
| 20260905143933 | 25 | 120 | 1.6 | 19.3 | 0.00 | 0.00 | 0.00 | 86 | 1013.2 |
| 20260905142434 | 24 | 0 | 0.0 | 19.3 | 0.00 | 0.00 | 0.00 | 88 | 1013.2 |
| 20260905140933 | 24 | 10 | 1.6 | 19.3 | 0.00 | 0.00 | 0.00 | 87 | 1013.1 |
| 20260905135433 | 23 | 240 | 4.8 | 19.3 | 0.00 | 0.00 | 0.00 | 89 | 1012.9 |
| 20260905133934 | 23 | 207 | 8.0 | 19.3 | 0.00 | 0.00 | 0.00 | 89 | 1012.6 |
| 20260905132433 | 23 | 0 | 11.3 | 19.3 | 0.00 | 0.00 | 0.00 | 90 | 1012.5 |
| 20260905130934 | 22 | 200 | 9.7 | 19.3 | 0.00 | 0.00 | 0.00 | 91 | 1012.4 |
| 20260905125434 | 22 | 70 | 9.7 | 19.3 | 0.00 | 0.00 | 0.00 | 92 | 1012.3 |
| 20260905123933 | 22 | 165 | 8.0 | 14.5 | 0.00 | 0.00 | 0.00 | 94 | 1012.5 |
| 20260905122434 | 22 | 173 | 8.0 | 14.5 | 0.00 | 0.00 | 0.00 | 95 | 1012.3 |
| 20260905120934 | 22 | 183 | 6.4 | 12.9 | 0.00 | 0.00 | 0.00 | 95 | 1012.3 |
| 20260905115433 | 22 | 184 | 4.8 | 9.7 | 0.00 | 0.00 | 0.00 | 94 | 1012.2 |
| 20260905113935 | 22 | 168 | 4.8 | 9.7 | 0.00 | 0.00 | 0.00 | 94 | 1012.0 |
| 20260905112434 | 22 | 161 | 3.2 | 8.0 | 0.00 | 0.00 | 0.00 | 94 | 1011.9 |
| 20260905110935 | 21 | 181 | 3.2 | 8.0 | 0.00 | 0.00 | 0.00 | 94 | 1011.8 |
| 20260905105433 | 21 | 0 | 0.0 | 8.0 | 0.00 | 0.00 | 0.00 | 94 | 1011.7 |
| 20260905103934 | 21 | 161 | 3.2 | 9.7 | 0.00 | 0.00 | 0.00 | 94 | 1011.6 |
| 20260905102432 | 21 | 182 | 1.6 | 8.0 | 0.00 | 0.00 | 0.00 | 93 | 1011.5 |
| 20260905100933 | 21 | 151 | 0.0 | 6.4 | 0.00 | 0.00 | 0.00 | 93 | 1011.6 |